Burlington, IA

3:41 AM CST on February 23, 2018 (GMT -0600)
Burlington Regional

Weather History for KBRL - October, 2012

Change the Weather History Date:

Thursday, October 4, 2012

  Actual Average Record
Temperature  
Mean Temperature 55 °F 60 °F  
Max Temperature 68 °F 71 °F 91 °F (1938)
Min Temperature 42 °F 48 °F 29 °F (1935)
Degree Days  
Heating Degree Days 10 7  
Month to date heating degree days 26 25  
Since 1 July heating degree days 152 96  
Cooling Degree Days 0 1  
Month to date cooling degree days 0 7  
Year to date cooling degree days 1272 1189  
Growing Degree Days 5 (Base 50)    
Moisture  
Dew Point 47 °F    
Average Humidity 79    
Maximum Humidity 100    
Minimum Humidity 58    
Precipitation  
Precipitation 0.40 in 0.11 in 2.04 in (1991)
Month to date precipitation 0.40 0.46  
Year to date precipitation 18.14 31.23  
Sea Level Pressure  
Sea Level Pressure 30.12 in    
Wind  
Wind Speed 8 mph (West)    
Max Wind Speed 17 mph    
Max Gust Speed 25 mph    
Visibility 8 miles    
Events Rain , Thunderstorm    
T = Trace of Precipitation, MM = Missing Value Source: NWS Daily Summary

Daily Weather History Graph

Daily Weather History Graph

Search for Another Location

Airport or City:

Trip Planner

Search our weather history database for the weather conditions in past years. The results will help you decide how hot, cold, wet, or windy it might be!

Date:

Astronomy

Oct. 04, 2012 Rise Set
Actual Time 7:04 AM CDT 6:40 PM CDT
Civil Twilight 6:37 AM CDT 7:08 PM CDT
Nautical Twilight 6:05 AM CDT 7:39 PM CDT
Astronomical Twilight 5:33 AM CDT 8:11 PM CDT
Moon 9:15 PM CDT (10/4) 11:23 AM CDT (10/4)
Length of Visible Light 12h 30m
Length of Day
11h 36m
Waning Gibbous, 82% of the Moon is Illuminated
Oct 4
Waning Gibbous
Oct 8
Last Quarter
Oct 15
New
Oct 21
First Quarter
Oct 29
Full

Hourly Weather History & Observations

Time (CDT) Temp. Windchill Dew Point Humidity Pressure Visibility Wind Dir Wind Speed Gust Speed Precip Events Conditions
12:53 AM 55.0 °F - 51.1 °F 86% 30.01 in 9.0 mi South 5.8 mph - N/A   Clear
1:53 AM 57.9 °F - 53.1 °F 84% 30.02 in 10.0 mi SSW 6.9 mph - N/A   Clear
2:53 AM 55.9 °F - 53.1 °F 90% 30.01 in 10.0 mi South 6.9 mph - N/A   Clear
3:53 AM 54.0 °F - 52.0 °F 93% 30.01 in 10.0 mi South 5.8 mph - N/A   Clear
4:53 AM 55.9 °F - 53.1 °F 90% 30.01 in 9.0 mi SSW 8.1 mph - N/A   Clear
5:53 AM 55.9 °F - 53.1 °F 90% 30.01 in 10.0 mi South 8.1 mph - N/A   Partly Cloudy
6:53 AM 57.0 °F - 53.1 °F 87% 30.02 in 10.0 mi SSW 9.2 mph - N/A   Scattered Clouds
7:53 AM 57.9 °F - 54.0 °F 87% 30.03 in 9.0 mi SSW 9.2 mph - N/A   Partly Cloudy
8:53 AM 63.0 °F - 55.0 °F 75% 30.03 in 10.0 mi WSW 9.2 mph - N/A   Clear
9:53 AM 66.0 °F - 53.1 °F 63% 30.06 in 7.0 mi WNW 12.7 mph 19.6 mph N/A   Clear
10:53 AM 66.0 °F - 51.1 °F 59% 30.07 in 10.0 mi West 9.2 mph 16.1 mph N/A   Clear
11:44 AM 64.4 °F - 44.6 °F 49% 30.09 in 8.0 mi WNW 11.5 mph 20.7 mph N/A Thunderstorm Partly Cloudy
11:53 AM 63.0 °F - 43.0 °F 48% 30.09 in 8.0 mi NW 10.4 mph 18.4 mph N/A Thunderstorm Thunderstorm
12:34 PM 57.2 °F - 44.6 °F 63% 30.13 in 10.0 mi NW 17.3 mph 25.3 mph N/A   Scattered Clouds
12:53 PM 57.9 °F - 46.0 °F 65% 30.14 in 9.0 mi NW 15.0 mph 21.9 mph N/A   Clear
1:53 PM 55.0 °F - 45.0 °F 69% 30.14 in 10.0 mi WNW 11.5 mph 19.6 mph N/A   Overcast
2:25 PM 51.8 °F - 44.6 °F 76% 30.16 in 6.0 mi West 12.7 mph 20.7 mph 0.01 in Rain , Thunderstorm Light Thunderstorms and Rain
2:44 PM 48.2 °F - 46.4 °F 93% 30.14 in 2.5 mi WNW 8.1 mph 17.3 mph 0.09 in Rain , Thunderstorm Thunderstorms and Rain
2:53 PM 48.9 °F - 46.0 °F 90% 30.17 in 3.0 mi West 9.2 mph - 0.10 in Rain , Thunderstorm Light Rain
3:01 PM 48.2 °F - 46.4 °F 93% 30.12 in 1.8 mi North 8.1 mph - 0.06 in Rain , Thunderstorm Heavy Thunderstorms and Rain
3:11 PM 48.2 °F - 46.4 °F 93% 30.09 in 3.0 mi North 10.4 mph - 0.08 in Rain , Thunderstorm Thunderstorms and Rain
3:21 PM 48.2 °F - 46.4 °F 93% 30.18 in 5.0 mi WSW 10.4 mph 21.9 mph 0.10 in Rain Light Rain
3:26 PM 48.2 °F - 46.4 °F 93% 30.16 in 1.8 mi WNW 10.4 mph 16.1 mph 0.14 in Rain Heavy Rain
3:33 PM 48.2 °F - 46.4 °F 93% 30.17 in 1.8 mi WNW 9.2 mph 16.1 mph 0.16 in Rain , Thunderstorm Light Rain
3:36 PM 48.2 °F - 46.4 °F 93% 30.18 in 3.0 mi West 10.4 mph 16.1 mph 0.16 in Rain , Thunderstorm Light Rain
3:45 PM 48.2 °F - 46.4 °F 93% 30.16 in 10.0 mi WNW 6.9 mph 16.1 mph 0.16 in Rain , Thunderstorm Light Rain
3:53 PM 48.0 °F - 46.0 °F 93% 30.16 in 10.0 mi WNW 5.8 mph - 0.16 in Rain , Thunderstorm Light Rain
4:21 PM 46.4 °F 42.4 °F 44.6 °F 93% 30.19 in 4.0 mi WNW 8.1 mph 17.3 mph 0.05 in Rain , Thunderstorm Light Thunderstorms and Rain
4:30 PM 46.4 °F 44.3 °F 44.6 °F 93% 30.17 in 8.0 mi NW 4.6 mph - 0.05 in Rain , Thunderstorm Light Rain
4:42 PM 46.4 °F 44.3 °F 46.4 °F 100% 30.17 in 9.0 mi WNW 4.6 mph - 0.05 in Rain Light Rain
4:53 PM 46.9 °F - 46.0 °F 97% 30.18 in 10.0 mi West 8.1 mph - 0.05 in Rain Light Rain
5:53 PM 46.9 °F - 46.0 °F 97% 30.19 in 2.0 mi West 6.9 mph - 0.07 in Rain Rain
6:02 PM 46.4 °F 42.9 °F 46.4 °F 100% 30.18 in 10.0 mi WNW 6.9 mph - 0.00 in Rain Light Rain
6:53 PM 46.9 °F - 45.0 °F 93% 30.18 in 10.0 mi West 4.6 mph - 0.00 in   Overcast
7:53 PM 46.4 °F 43.5 °F 44.6 °F 93% 30.18 in 10.0 mi West 5.8 mph - N/A   Mostly Cloudy
8:53 PM 45.0 °F 41.8 °F 44.1 °F 97% 30.20 in 10.0 mi West 5.8 mph - N/A   Clear
9:53 PM 44.1 °F 40.8 °F 42.1 °F 93% 30.21 in 10.0 mi West 5.8 mph - N/A   Clear
10:53 PM 44.1 °F - 42.1 °F 93% 30.19 in 10.0 mi Calm Calm - 0.01 in   Clear
11:53 PM 42.1 °F 39.2 °F 41.0 °F 96% 30.20 in 10.0 mi West 4.6 mph - N/A   Clear